Location: Solstice Park, West Seattle
(47.5363°N, 122.3905°W)
Time: 08:15:40
(UTC-07:00)

ISS - Pass Details

Date: 15 May 2021
Orbit: 417 x 422 km, 51.6° (Epoch: 18 June)

Event Time Altitude Azimuth Distance (km) Brightness Sun altitude
Rises 00:43:25 0° 274° (W) 2,367 0.2 -23.3°
Reaches altitude 10° 00:45:36 10° 282° (WNW) 1,504 -0.8 -23.4°
Maximum altitude 00:48:49 41° 354° (N) 629 -2.4 -23.4°
Drops below altitude 10° 00:52:03 10° 66° (ENE) 1,509 -0.7 -23.4°
Sets 00:54:14 0° 74° (ENE) 2,375 0.2 -23.5°
